| time (UTC) | temp F | wind direction | speed MPH | gust MPH | rain 1hr in | rain 24hr in | rain mn in | humidity % | barometer mb |
| 20260504000303 | 63 | 202 | 0.0 | 0.0 | 0.00 | 0.00 | 0.00 | 51 | 1016.7 |
| 20260503234803 | 64 | 202 | 0.0 | 0.0 | 0.00 | 0.00 | 0.00 | 46 | 1016.7 |
| 20260503233803 | 65 | 202 | 0.0 | 0.0 | 0.00 | 0.00 | 0.00 | 39 | 1016.7 |
| 20260503233302 | 66 | 202 | 0.0 | 0.0 | 0.00 | 0.00 | 0.00 | 40 | 1016.6 |
| 20260503231303 | 67 | 202 | 0.0 | 0.0 | 0.00 | 0.00 | 0.00 | 41 | 1016.7 |
| 20260503230803 | 67 | 202 | 0.0 | 0.0 | 0.00 | 0.00 | 0.00 | 41 | 1016.7 |
| 20260503230303 | 67 | 202 | 0.0 | 1.0 | 0.00 | 0.00 | 0.00 | 37 | 1016.7 |
| 20260503224803 | 68 | 175 | 0.0 | 0.0 | 0.00 | 0.00 | 0.00 | 39 | 1016.8 |
| 20260503224303 | 68 | 180 | 1.0 | 1.0 | 0.00 | 0.00 | 0.00 | 36 | 1016.7 |
| 20260503223803 | 68 | 40 | 0.0 | 1.0 | 0.00 | 0.00 | 0.00 | 38 | 1016.7 |
| 20260503223303 | 69 | 40 | 1.0 | 5.0 | 0.00 | 0.00 | 0.00 | 36 | 1016.7 |
| 20260503221303 | 68 | 183 | 1.0 | 3.0 | 0.00 | 0.00 | 0.00 | 34 | 1016.8 |
| 20260503220803 | 69 | 190 | 0.0 | 2.0 | 0.00 | 0.00 | 0.00 | 35 | 1016.8 |
| 20260503220302 | 69 | 234 | 0.0 | 3.0 | 0.00 | 0.00 | 0.00 | 40 | 1016.8 |
| 20260503214303 | 69 | 212 | 0.0 | 2.0 | 0.00 | 0.00 | 0.00 | 32 | 1016.9 |
| 20260503213803 | 70 | 175 | 1.0 | 3.0 | 0.00 | 0.00 | 0.00 | 35 | 1017.0 |
| 20260503213303 | 70 | 227 | 1.0 | 3.0 | 0.00 | 0.00 | 0.00 | 37 | 1017.0 |
| 20260503211803 | 70 | 201 | 1.0 | 3.0 | 0.00 | 0.00 | 0.00 | 34 | 1017.1 |
| 20260503210803 | 70 | 182 | 2.0 | 3.0 | 0.00 | 0.00 | 0.00 | 33 | 1017.1 |
| 20260503210303 | 70 | 219 | 1.0 | 6.0 | 0.00 | 0.00 | 0.00 | 35 | 1017.2 |
| 20260503204803 | 70 | 224 | 2.0 | 5.0 | 0.00 | 0.00 | 0.00 | 34 | 1017.2 |
| 20260503204303 | 70 | 250 | 1.0 | 3.0 | 0.00 | 0.00 | 0.00 | 38 | 1017.3 |
| 20260503203803 | 71 | 63 | 1.0 | 2.0 | 0.00 | 0.00 | 0.00 | 36 | 1017.4 |
| 20260503201803 | 71 | 166 | 1.0 | 2.0 | 0.00 | 0.00 | 0.00 | 36 | 1017.8 |
| 20260503201303 | 71 | 183 | 2.0 | 3.0 | 0.00 | 0.00 | 0.00 | 36 | 1017.9 |
| 20260503200803 | 71 | 216 | 2.0 | 3.0 | 0.00 | 0.00 | 0.00 | 36 | 1017.9 |
| 20260503200303 | 71 | 216 | 2.0 | 5.0 | 0.00 | 0.00 | 0.00 | 34 | 1018.0 |
| 20260503194803 | 71 | 249 | 1.0 | 3.0 | 0.00 | 0.00 | 0.00 | 37 | 1018.2 |
| 20260503194303 | 71 | 82 | 1.0 | 2.0 | 0.00 | 0.00 | 0.00 | 33 | 1018.2 |
| 20260503193803 | 71 | 112 | 1.0 | 3.0 | 0.00 | 0.00 | 0.00 | 32 | 1018.4 |
| 20260503193303 | 71 | 255 | 1.0 | 3.0 | 0.00 | 0.00 | 0.00 | 36 | 1018.5 |
| 20260503191303 | 70 | 149 | 1.0 | 3.0 | 0.00 | 0.00 | 0.00 | 33 | 1018.8 |
| 20260503190804 | 71 | 36 | 1.0 | 3.0 | 0.00 | 0.00 | 0.00 | 37 | 1019.0 |
| 20260503190303 | 70 | 242 | 1.0 | 5.0 | 0.00 | 0.00 | 0.00 | 38 | 1019.0 |
| 20260503184304 | 69 | 218 | 1.0 | 2.0 | 0.00 | 0.00 | 0.00 | 38 | 1019.3 |
| 20260503183303 | 68 | 252 | 1.0 | 3.0 | 0.00 | 0.00 | 0.00 | 37 | 1019.5 |
| 20260503181803 | 69 | 251 | 1.0 | 3.0 | 0.00 | 0.00 | 0.00 | 45 | 1019.5 |
| 20260503180803 | 67 | 214 | 2.0 | 3.0 | 0.00 | 0.00 | 0.00 | 40 | 1019.7 |
| 20260503174803 | 66 | 114 | 1.0 | 2.0 | 0.00 | 0.00 | 0.00 | 43 | 1019.7 |
| 20260503173803 | 67 | 147 | 1.0 | 2.0 | 0.00 | 0.00 | 0.00 | 42 | 1020.0 |
| 20260503173303 | 66 | 205 | 1.0 | 3.0 | 0.00 | 0.00 | 0.00 | 38 | 1020.0 |
| 20260503171303 | 66 | 136 | 1.0 | 2.0 | 0.00 | 0.00 | 0.00 | 42 | 1020.2 |
| 20260503170304 | 65 | 13 | 1.0 | 5.0 | 0.00 | 0.00 | 0.00 | 41 | 1020.3 |
| 20260503150803 | 59 | 44 | 1.0 | 2.0 | 0.00 | 0.00 | 0.00 | 54 | 1021.2 |
| 20260503150304 | 59 | 261 | 1.0 | 2.0 | 0.00 | 0.00 | 0.00 | 53 | 1021.1 |
| 20260503140304 | 56 | 101 | 0.0 | 1.0 | 0.00 | 0.00 | 0.00 | 67 | 1020.6 |
| 20260503131304 | 52 | 334 | 0.0 | 1.0 | 0.00 | 0.00 | 0.00 | 77 | 1020.4 |
| 20260503130803 | 51 | 93 | 0.0 | 2.0 | 0.00 | 0.00 | 0.00 | 79 | 1020.4 |
| 20260503110803 | 43 | 66 | 0.0 | 1.0 | 0.00 | 0.00 | 0.00 | 91 | 1019.6 |
| 20260503110303 | 43 | 66 | 0.0 | 1.0 | 0.00 | 0.00 | 0.00 | 91 | 1019.6 |
| 20260503090303 | 44 | 74 | 0.0 | 0.0 | 0.00 | 0.00 | 0.00 | 89 | 1018.7 |
| 20260503081304 | 45 | 74 | 0.0 | 0.0 | 0.00 | 0.00 | 0.00 | 88 | 1018.2 |
| 20260503080304 | 45 | 74 | 0.0 | 0.0 | 0.00 | 0.00 | 0.00 | 88 | 1018.1 |
| 20260503071804 | 45 | 74 | 0.0 | 0.0 | 0.00 | 0.00 | 0.00 | 87 | 1017.6 |
| 20260503071304 | 45 | 74 | 0.0 | 0.0 | 0.00 | 0.00 | 0.00 | 87 | 1017.5 |
| 20260503070803 | 45 | 74 | 0.0 | 1.0 | 0.00 | 0.00 | 0.00 | 87 | 1017.5 |
| 20260503070303 | 45 | 74 | 0.0 | 0.0 | 0.00 | 0.00 | 0.00 | 87 | 1017.4 |
| 20260503060304 | 45 | 74 | 0.0 | 0.0 | 0.00 | 0.00 | 0.00 | 86 | 1017.4 |
| 20260503054804 | 45 | 74 | 0.0 | 0.0 | 0.00 | 0.00 | 0.00 | 86 | 1017.4 |
| 20260503053803 | 46 | 74 | 0.0 | 0.0 | 0.00 | 0.00 | 0.00 | 85 | 1017.3 |
| 20260503053304 | 46 | 74 | 0.0 | 0.0 | 0.00 | 0.00 | 0.00 | 85 | 1017.3 |
| 20260503051803 | 46 | 74 | 0.0 | 0.0 | 0.00 | 0.00 | 0.00 | 85 | 1017.2 |
| 20260503051304 | 46 | 74 | 0.0 | 0.0 | 0.00 | 0.00 | 0.00 | 85 | 1017.2 |
| 20260503050303 | 46 | 74 | 0.0 | 0.0 | 0.00 | 0.00 | 0.00 | 85 | 1017.2 |
| 20260503044803 | 46 | 74 | 0.0 | 0.0 | 0.00 | 0.00 | 0.00 | 83 | 1017.2 |
| 20260503043304 | 47 | 74 | 0.0 | 0.0 | 0.00 | 0.00 | 0.00 | 83 | 1017.1 |
| 20260503041804 | 47 | 74 | 0.0 | 0.0 | 0.00 | 0.00 | 0.00 | 82 | 1016.8 |
| 20260503041304 | 47 | 74 | 0.0 | 0.0 | 0.00 | 0.00 | 0.00 | 81 | 1016.8 |
| 20260503040822 | 47 | 74 | 0.0 | 0.0 | 0.00 | 0.00 | 0.00 | 80 | 1016.6 |
| 20260503034804 | 48 | 74 | 0.0 | 0.0 | 0.00 | 0.00 | 0.00 | 78 | 1016.7 |
| 20260503034304 | 48 | 74 | 0.0 | 0.0 | 0.00 | 0.00 | 0.00 | 77 | 1016.7 |
| 20260503033803 | 48 | 74 | 0.0 | 0.0 | 0.00 | 0.00 | 0.00 | 77 | 1016.7 |
| 20260503033304 | 49 | 74 | 0.0 | 0.0 | 0.00 | 0.00 | 0.00 | 77 | 1016.6 |
| 20260503031804 | 50 | 74 | 0.0 | 0.0 | 0.00 | 0.00 | 0.00 | 76 | 1016.6 |
| 20260503031304 | 50 | 74 | 0.0 | 0.0 | 0.00 | 0.00 | 0.00 | 75 | 1016.5 |
| 20260503030803 | 50 | 74 | 0.0 | 0.0 | 0.00 | 0.00 | 0.00 | 73 | 1016.3 |
| 20260503030304 | 51 | 74 | 0.0 | 0.0 | 0.00 | 0.00 | 0.00 | 72 | 1016.2 |
| 20260503024804 | 52 | 74 | 0.0 | 0.0 | 0.00 | 0.00 | 0.00 | 71 | 1016.0 |
| 20260503024304 | 52 | 74 | 0.0 | 0.0 | 0.00 | 0.00 | 0.00 | 69 | 1016.0 |
| 20260503023803 | 52 | 74 | 0.0 | 0.0 | 0.00 | 0.00 | 0.00 | 68 | 1015.8 |
| 20260503021804 | 53 | 74 | 0.0 | 0.0 | 0.00 | 0.00 | 0.00 | 63 | 1015.7 |
| 20260503020304 | 55 | 74 | 0.0 | 0.0 | 0.00 | 0.00 | 0.00 | 59 | 1015.5 |
| 20260503014804 | 56 | 74 | 0.0 | 0.0 | 0.00 | 0.00 | 0.00 | 54 | 1015.3 |
| 20260503014304 | 56 | 74 | 0.0 | 0.0 | 0.00 | 0.00 | 0.00 | 55 | 1015.2 |
| 20260503013804 | 56 | 74 | 0.0 | 0.0 | 0.00 | 0.00 | 0.00 | 53 | 1015.2 |
| 20260503013304 | 57 | 74 | 0.0 | 0.0 | 0.00 | 0.00 | 0.00 | 53 | 1015.0 |
| 20260503011804 | 58 | 74 | 0.0 | 0.0 | 0.00 | 0.00 | 0.00 | 46 | 1014.9 |
| 20260503011304 | 59 | 74 | 0.0 | 0.0 | 0.00 | 0.00 | 0.00 | 47 | 1014.7 |
| 20260503010804 | 59 | 74 | 0.0 | 0.0 | 0.00 | 0.00 | 0.00 | 47 | 1014.7 |
| 20260503010303 | 59 | 74 | 0.0 | 1.0 | 0.00 | 0.00 | 0.00 | 44 | 1014.6 |
| 20260503004804 | 60 | 74 | 0.0 | 1.0 | 0.00 | 0.00 | 0.00 | 43 | 1014.5 |
| 20260503004303 | 60 | 74 | 0.0 | 1.0 | 0.00 | 0.00 | 0.00 | 41 | 1014.3 |
| 20260503003304 | 61 | 74 | 0.0 | 2.0 | 0.00 | 0.00 | 0.00 | 42 | 1014.1 |
| 20260503001804 | 61 | 51 | 0.0 | 2.0 | 0.00 | 0.00 | 0.00 | 41 | 1013.7 |
| 20260503001306 | 62 | 96 | 0.0 | 1.0 | 0.00 | 0.00 | 0.00 | 40 | 1013.6 |
| 20260503000802 | 62 | 67 | 1.0 | 3.0 | 0.00 | 0.00 | 0.00 | 39 | 1013.4 |